Location: Central Falls
(41.8900°N, 71.3929°W)
Time: 14:05:22
(UTC+00:00)

Vanguard 1 - Pass Details

Date: 11 December 2023
Orbit: 653 x 3826 km, 34.3° (Epoch: 24 February)

Event Time Altitude Azimuth Distance (km) Brightness Sun altitude
Rises 20:54:05 0° 234° (SW) 4,563 17.1 2.4°
Reaches altitude 10° 20:56:39 10° 228° (SW) 3,894 15.4 2.0°
Maximum altitude 21:07:11 53° 155° (SSE) 2,859 12.5 0.3°
Drops below altitude 10° 21:25:42 10° 87° (E) 6,540 13.7 -2.6°
Sets 21:31:35 0° 84° (E) 7,815 14.1 -3.6°
